Overview Statistics Trail Chart Weather Telemetry Raw packets
 

This is the latest recevied weather packets stored in our database for station/object KB0BDN-13. If no packets are shown the sender has not sent any weather packets the latest 10 day(s).

<< 52 53 54 55 56 57 58 >>
Time Temp. Humidity Pressure Rain* Wind** Luminosity Snow
1788022894 22.78° C 62% 1007.5 hPa 0 mm - - -
1788022753 22.78° C 61% 1007.6 hPa 0 mm - - -
1788021994 22.78° C 61% 1007.6 hPa 0 mm - - -
1788021853 22.78° C 61% 1007.7 hPa 0 mm - - -
1788021095 22.22° C 64% 1007.7 hPa 0 mm - - -
1788020953 21.67° C 64% 1007.6 hPa 0 mm - - -
1788020194 21.67° C 64% 1007.6 hPa 0 mm - - -
1788020068 21.11° C 64% 1007.9 hPa 0 mm - - -
1788019295 20.56° C 67% 1007.9 hPa 0 mm - - -
1788019152 20.56° C 67% 1007.8 hPa 0 mm - - -
1788018394 20° C 68% 1007.8 hPa 0 mm - - -
1788018252 20° C 68% 1007.9 hPa 0 mm - - -
1788017494 18.89° C 72% 1007.9 hPa 0 mm - - -
1788017352 18.89° C 73% 1007.9 hPa 0 mm - - -
1788016594 17.78° C 73% 1007.9 hPa 0 mm - - -
1788016452 17.78° C 74% 1007.9 hPa 0 mm - - -
1788015695 17.78° C 73% 1007.9 hPa 0 mm - - -
1788015552 17.78° C 72% 1008.1 hPa 0 mm - - -
1788014794 17.78° C 73% 1008.1 hPa 0 mm - - -
1788014652 17.78° C 74% 1008.2 hPa 0 mm - - -
1788013895 17.22° C 75% 1008.2 hPa 0 mm - - -
1788013752 17.22° C 72% 1008.4 hPa 0 mm - - -
1788012994 16.67° C 74% 1008.4 hPa 0 mm - - -
1788012852 16.67° C 74% 1008.8 hPa 0 mm - - -
1788012094 16.11° C 76% 1008.8 hPa 0 mm - - -

* Rain latest hour (hover to see other rain measurements)
** Current wind speed in m/s (hover to see current wind gust speed)